Wind_Speed
27 28 29 30 30 30 31 32 33 34 35 36 37 38 38 39 40 40 40 40 40 40 40 40 41 41 42 42 43 44 44 45 45 46 46 47 48 49 49 50 50 50 50
29 30 31 31 31 32 32 33 34 36 37 38 39 40 40 41 41 41 41 41 41 41 42 42 43 43 44 45 46 47 48 49 49 50 51 52 52 53 54 54 55 55 55
30 31 31 31 32 32 33 33 35 36 38 39 40 40 41 41 42 42 42 42 43 43 44 45 46 47 48 49 51 52 53 54 55 56 57 58 58 59 59 60 60 60 60
30 31 31 31 32 32 33 35 36 38 39 39 40 41 42 42 42 43 44 45 46 46 48 49 50 52 53 55 56 57 59 60 61 63 64 65 65 65 66 66 66 66 66
31 31 31 32 33 34 35 37 39 40 40 41 41 42 43 43 44 45 46 47 49 50 52 54 56 58 59 61 63 64 66 67 68 70 71 72 72 72 73 73 72 72 72
32 33 33 34 35 37 39 40 42 42 43 43 43 43 44 45 45 47 49 50 52 54 57 59 61 63 65 67 69 71 72 73 74 75 76 77 77 78 78 79 79 78 78
34 34 35 37 38 40 42 43 44 45 45 45 45 44 45 47 48 50 52 55 58 60 63 65 67 69 71 73 74 76 77 78 79 80 80 81 82 83 83 84 84 84 83
35 36 38 40 41 43 44 44 45 46 47 47 47 47 47 48 51 54 57 60 63 66 68 70 72 74 75 76 78 79 80 81 82 83 84 85 86 87 87 87 88 88 88
38 40 41 42 43 44 45 45 46 47 48 50 51 53 54 55 55 57 60 64 67 69 71 73 74 76 77 79 80 82 83 85 86 87 88 90 90 91 91 92 92 92 92
40 41 42 43 44 45 46 46 47 49 50 52 55 58 61 64 66 66 65 66 68 69 71 73 75 77 80 82 84 86 88 90 91 93 94 95 97 97 98 98 99 99 99
41 42 43 44 45 46 47 48 50 52 54 56 59 62 65 69 72 75 74 72 71 71 72 75 78 81 85 88 91 93 95 97 98 100 101 102 103 104 105 105 106 106 106
42 43 44 45 46 47 48 50 53 55 58 61 64 67 69 70 72 74 76 77 77 76 77 80 84 89 93 96 99 102 104 105 106 107 108 108 109 109 109 109 108 109 109
42 43 44 46 47 49 51 53 55 58 62 65 67 69 71 72 74 76 78 79 80 81 84 87 92 97 102 105 108 109 110 110 109 109 108 108 107 107 106 105 105 105 105
43 44 46 47 49 51 53 56 59 62 65 67 68 70 71 73 75 79 83 86 87 88 90 94 99 104 108 111 112 111 110 108 106 104 102 100 99 97 96 96 95 95 95
44 46 47 49 50 53 56 59 62 64 66 68 68 70 72 75 79 83 88 93 98 99 98 101 106 109 111 111 109 106 104 101 98 95 92 90 88 87 85 85 85 84 85
45 47 48 50 53 56 59 62 64 65 66 68 69 72 75 80 84 89 95 100 106 111 111 108 109 108 106 103 100 98 95 92 88 86 84 82 80 79 77 76 76 76 76
46 48 50 53 55 59 61 63 64 66 67 69 72 76 81 86 91 96 101 106 111 114 116 111 104 98 93 90 87 86 86 84 80 77 75 73 71 70 68 68 67 66 66
48 50 52 55 58 61 63 64 65 66 69 73 77 82 87 93 98 103 107 111 112 111 109 104 94 87 81 78 76 75 74 73 69 66 63 61 60 59 58 58 58 57 57
50 52 55 58 61 62 63 64 66 69 73 78 84 89 94 99 104 108 111 111 108 103 98 93 86 78 72 69 67 64 61 58 55 53 52 51 51 50 50 49 50 50 50
52 55 58 60 62 62 64 66 69 73 79 84 90 95 101 105 109 111 110 106 100 93 87 83 77 70 64 60 57 52 46 43 42 43 44 44 44 44 43 44 43 43 43
55 58 60 61 62 63 66 69 73 79 84 90 95 101 106 109 110 109 104 98 90 84 78 73 68 61 54 48 44 39 36 33 33 37 38 39 41 41 42 42 41 40 40
57 59 61 61 63 65 69 74 79 84 90 96 101 105 108 108 105 99 92 86 80 75 70 64 57 50 43 39 35 33 32 29 28 32 34 33 36 36 37 38 38 37 37
58 60 61 62 65 69 74 79 84 90 95 101 105 107 107 103 96 89 82 75 68 63 58 53 46 41 37 34 32 29 27 26 27 28 28 27 30 31 32 32 33 33 34
58 59 61 64 68 73 79 84 89 94 100 104 106 105 101 93 86 80 73 65 57 50 46 41 38 35 33 31 29 26 24 23 26 29 28 25 26 27 28 29 29 28 28
58 60 64 68 73 78 83 89 94 99 102 104 102 98 92 84 77 71 63 54 46 39 35 33 32 31 30 29 28 25 24 24 23 26 28 27 25 25 26 25 25 24 24
59 62 67 72 77 83 88 94 99 102 103 101 94 87 81 75 67 59 52 44 36 30 27 26 27 27 27 26 27 27 25 24 23 23 24 25 24 23 20 22 22 21 21
Wind_Direction
294 295 294 294 293 291 290 289 289 290 291 291 290 290 289 288 286 285 284 282 281 280 279 279 278 278 278 277 276 275 274 274 273 272 271 270 270 269 268 267 266 266 265
293 294 294 293 293 292 290 289 289 290 291 291 291 290 289 288 287 285 284 283 282 281 280 279 278 277 277 277 276 276 275 275 274 273 273 272 272 272 271 270 269 268 267
292 293 294 293 293 292 292 291 291 291 291 291 290 289 288 287 286 285 284 284 283 282 281 280 279 278 277 276 276 276 276 276 276 275 275 274 274 273 273 272 272 270 269
292 293 294 294 293 294 294 294 293 293 292 291 290 289 288 287 286 285 284 284 283 282 282 281 281 280 279 278 278 277 277 277 276 276 276 275 274 274 273 273 272 271 270
292 294 295 294 294 294 294 295 295 294 292 291 290 289 287 286 286 285 285 284 284 284 283 283 283 282 281 281 280 279 279 278 278 277 276 276 275 274 273 273 272 271 269
292 293 294 294 295 295 295 295 295 294 292 291 290 289 287 287 287 286 287 287 287 287 287 287 287 286 285 284 283 282 281 280 279 278 277 276 275 274 274 273 272 270 269
292 293 293 294 295 295 295 295 295 295 294 293 291 291 291 291 292 292 292 293 293 292 292 292 291 290 289 288 286 285 284 282 281 280 278 277 276 275 274 273 272 270 269
293 293 294 295 296 296 296 296 295 295 295 294 293 292 291 292 294 295 295 295 295 295 294 293 292 291 290 289 287 286 285 284 282 281 279 278 276 275 274 272 271 270 268
294 294 295 296 296 297 297 297 297 297 297 297 297 296 295 294 292 293 294 295 295 294 294 293 292 291 290 289 288 286 285 284 282 281 280 278 277 275 274 272 271 269 267
294 295 295 296 297 298 298 298 298 298 298 299 299 299 299 299 297 296 295 295 295 295 294 294 293 293 291 290 289 288 286 285 284 282 280 279 277 275 274 272 270 268 267
294 295 296 297 298 298 299 299 299 300 300 300 300 300 300 300 300 300 299 298 297 297 297 296 296 295 294 293 292 290 289 287 286 284 282 280 278 276 274 272 270 268 266
295 296 296 297 298 299 299 300 300 301 301 301 301 301 301 301 301 300 300 299 298 298 299 299 299 299 297 296 295 293 292 290 288 286 284 282 280 278 276 273 271 269 266
296 297 297 298 299 299 300 300 301 301 302 302 303 303 303 303 303 302 302 301 300 300 300 301 301 301 300 298 297 295 293 291 288 286 284 282 280 278 276 274 272 269 267
296 297 298 299 299 300 300 301 302 303 303 304 304 304 304 304 305 305 304 303 302 301 302 303 302 301 300 298 297 294 292 290 288 286 284 282 280 278 277 274 272 270 268
297 298 299 300 300 300 301 302 304 304 305 305 305 305 306 306 306 307 307 306 305 304 303 304 303 302 300 298 296 293 291 289 288 286 285 283 281 279 277 275 272 270 268
298 299 299 300 301 302 303 304 305 306 306 306 306 307 307 308 308 308 308 308 308 307 306 305 304 302 300 297 295 293 292 291 290 288 287 285 283 280 278 276 273 270 268
298 299 300 301 303 304 305 306 306 307 307 308 308 309 309 309 309 309 309 309 309 308 307 306 305 302 299 296 295 293 292 292 291 290 289 287 285 282 280 277 275 272 269
300 301 302 304 305 306 307 307 308 308 309 309 310 310 311 311 311 311 310 310 309 308 307 306 305 302 300 297 295 293 292 293 292 291 290 287 285 283 281 279 277 275 272
301 303 304 306 307 307 307 308 309 310 311 311 312 312 312 312 312 312 311 311 310 308 306 305 305 304 302 300 297 296 295 294 294 293 291 289 288 286 284 282 280 277 275
303 305 306 307 307 308 308 309 311 312 312 313 313 313 313 314 313 313 312 311 310 308 307 306 306 306 305 302 301 300 299 297 296 294 292 291 290 289 288 286 285 283 280
305 306 307 308 308 309 310 311 312 313 314 314 314 315 315 315 314 314 313 312 310 309 308 308 308 308 307 306 305 305 305 302 299 294 292 293 293 292 290 290 289 288 285
306 308 308 309 309 311 312 313 314 315 315 316 316 316 316 316 315 314 313 312 311 310 310 309 310 310 311 311 312 313 311 309 302 296 297 297 296 296 294 293 292 291 289
308 308 309 310 311 312 313 314 315 316 317 317 317 317 317 317 315 314 313 313 312 310 310 311 312 313 314 316 318 319 318 316 311 306 306 304 301 301 299 297 295 293 291
308 309 310 311 312 314 315 316 317 318 318 318 318 318 318 317 316 315 315 315 314 313 312 312 313 316 319 322 325 328 328 325 319 314 315 316 311 310 307 305 304 301 297
309 310 312 313 314 315 316 317 318 319 319 320 320 319 318 317 317 316 317 317 318 316 315 315 317 321 324 327 330 333 333 332 329 322 321 323 322 321 317 316 315 312 308
310 312 313 314 316 317 318 319 319 320 320 320 320 320 318 318 318 318 318 320 321 320 318 317 319 323 327 331 334 337 340 341 338 332 328 328 328 329 328 326 327 325 322
Height
5806 5804 5802 5800 5798 5796 5793 5791 5789 5786 5784 5781 5778 5775 5772 5769 5765 5763 5760 5757 5754 5752 5750 5747 5745 5743 5741 5739 5737 5735 5733 5731 5730 5729 5728 5726 5725 5724 5724 5723 5723 5723 5723
5800 5798 5796 5794 5792 5790 5787 5785 5783 5780 5777 5774 5771 5767 5764 5760 5757 5754 5751 5748 5746 5743 5741 5738 5736 5734 5731 5729 5727 5724 5722 5720 5719 5717 5716 5714 5713 5712 5711 5710 5710 5709 5709
5794 5792 5790 5788 5785 5783 5781 5778 5775 5773 5770 5766 5763 5759 5756 5752 5749 5746 5742 5739 5737 5734 5731 5728 5726 5723 5721 5718 5715 5713 5710 5708 5706 5704 5702 5701 5699 5698 5697 5696 5695 5695 5695
5788 5786 5783 5781 5779 5776 5773 5771 5768 5764 5761 5758 5754 5751 5747 5743 5740 5736 5733 5730 5727 5724 5720 5717 5714 5711 5708 5705 5702 5699 5697 5694 5691 5689 5686 5684 5683 5682 5681 5680 5679 5679 5679
5781 5779 5777 5774 5772 5769 5766 5763 5759 5756 5753 5749 5745 5742 5738 5734 5730 5726 5723 5719 5715 5712 5709 5705 5701 5697 5694 5690 5687 5684 5680 5678 5675 5672 5669 5666 5664 5663 5662 5661 5661 5661 5661
5775 5772 5770 5767 5764 5761 5758 5754 5750 5746 5743 5740 5736 5732 5728 5724 5720 5716 5712 5708 5703 5699 5695 5691 5686 5682 5677 5673 5669 5665 5661 5658 5655 5652 5649 5647 5644 5642 5641 5640 5639 5639 5640
5767 5765 5762 5759 5756 5752 5748 5744 5740 5736 5732 5729 5726 5722 5718 5713 5709 5704 5699 5695 5690 5685 5679 5674 5669 5664 5659 5654 5649 5644 5640 5636 5632 5629 5626 5624 5622 5619 5618 5617 5616 5616 5616
5760 5757 5753 5750 5746 5742 5738 5734 5730 5726 5721 5717 5714 5711 5709 5706 5699 5693 5687 5681 5676 5670 5664 5657 5651 5645 5639 5634 5628 5623 5617 5613 5608 5604 5601 5598 5596 5594 5592 5591 5590 5590 5590
5751 5748 5744 5740 5736 5732 5728 5724 5719 5715 5710 5705 5700 5696 5692 5690 5689 5686 5678 5670 5662 5655 5648 5641 5633 5625 5618 5612 5606 5600 5594 5589 5584 5579 5574 5571 5568 5566 5564 5563 5562 5561 5561
5743 5739 5735 5731 5726 5722 5717 5713 5709 5704 5699 5694 5688 5682 5675 5669 5665 5664 5664 5656 5648 5640 5631 5623 5614 5605 5596 5589 5581 5574 5568 5562 5556 5551 5546 5541 5538 5535 5532 5531 5530 5529 5529
5734 5730 5725 5721 5717 5712 5707 5702 5697 5692 5687 5681 5676 5669 5662 5654 5645 5638 5636 5634 5628 5620 5611 5603 5593 5582 5572 5563 5554 5546 5538 5531 5524 5518 5513 5507 5503 5499 5497 5495 5494 5493 5493
5725 5720 5716 5711 5707 5702 5697 5692 5686 5681 5674 5668 5661 5654 5647 5639 5631 5622 5615 5610 5604 5599 5590 5580 5569 5556 5544 5533 5522 5512 5503 5495 5487 5481 5474 5469 5463 5459 5456 5455 5454 5453 5453
5716 5711 5707 5702 5697 5692 5687 5681 5675 5669 5662 5654 5647 5638 5629 5620 5611 5602 5594 5588 5583 5577 5567 5557 5543 5528 5514 5501 5488 5476 5466 5457 5448 5441 5434 5428 5423 5418 5415 5413 5411 5411 5411
5706 5702 5697 5692 5687 5682 5676 5670 5663 5656 5648 5639 5631 5622 5613 5603 5593 5582 5572 5562 5556 5554 5546 5535 5518 5501 5483 5467 5453 5439 5428 5418 5410 5403 5396 5390 5385 5380 5377 5374 5372 5372 5371
5697 5692 5687 5683 5677 5671 5665 5658 5650 5642 5633 5624 5615 5606 5596 5586 5575 5563 5550 5537 5525 5519 5519 5510 5492 5473 5452 5434 5417 5403 5391 5382 5374 5367 5361 5355 5351 5347 5343 5341 5339 5338 5338
5688 5683 5678 5672 5666 5660 5653 5645 5637 5627 5618 5609 5599 5590 5579 5568 5556 5543 5529 5514 5496 5480 5475 5476 5459 5441 5421 5401 5384 5369 5357 5349 5343 5336 5330 5324 5320 5316 5313 5311 5309 5308 5308
5678 5672 5667 5661 5654 5647 5639 5631 5622 5613 5603 5593 5582 5572 5560 5548 5535 5521 5505 5489 5471 5450 5434 5433 5423 5407 5390 5374 5360 5344 5331 5322 5317 5311 5304 5298 5293 5289 5286 5284 5282 5282 5281
5667 5662 5655 5649 5642 5634 5625 5617 5608 5598 5587 5577 5565 5553 5540 5526 5512 5496 5479 5461 5443 5423 5402 5391 5389 5377 5363 5348 5336 5324 5312 5302 5294 5289 5282 5276 5271 5268 5265 5262 5260 5259 5259
5656 5650 5643 5636 5628 5620 5611 5602 5593 5582 5571 5558 5545 5532 5518 5503 5487 5470 5452 5433 5414 5396 5377 5360 5354 5348 5337 5325 5313 5305 5295 5286 5278 5271 5265 5260 5255 5251 5247 5245 5242 5241 5240
5645 5638 5631 5623 5615 5606 5597 5587 5577 5566 5553 5540 5525 5510 5493 5476 5458 5440 5422 5404 5386 5370 5355 5340 5330 5323 5315 5304 5294 5286 5281 5274 5266 5258 5252 5246 5242 5237 5234 5230 5228 5226 5224
5633 5626 5618 5609 5601 5592 5582 5572 5561 5549 5535 5521 5505 5487 5469 5450 5430 5410 5390 5374 5359 5345 5333 5321 5312 5304 5296 5288 5280 5274 5268 5264 5257 5247 5242 5237 5231 5227 5222 5218 5214 5212 5210
5621 5613 5605 5596 5587 5577 5567 5555 5543 5531 5515 5499 5482 5464 5445 5425 5406 5387 5369 5352 5337 5324 5313 5304 5296 5289 5282 5276 5270 5264 5258 5253 5248 5241 5234 5230 5222 5217 5212 5207 5203 5200 5196
5608 5600 5591 5582 5573 5562 5551 5539 5526 5511 5495 5476 5457 5438 5420 5400 5381 5365 5350 5337 5324 5311 5299 5291 5284 5278 5273 5268 5262 5257 5251 5244 5238 5232 5227 5223 5215 5209 5204 5198 5194 5190 5185
5596 5587 5578 5568 5558 5547 5535 5522 5508 5492 5474 5454 5433 5412 5394 5377 5360 5345 5333 5322 5310 5300 5290 5282 5276 5270 5265 5260 5254 5250 5244 5239 5232 5224 5219 5215 5209 5202 5196 5190 5185 5180 5175
5583 5574 5564 5554 5543 5531 5517 5503 5488 5472 5454 5434 5413 5391 5371 5356 5343 5328 5317 5308 5299 5291 5283 5275 5269 5264 5259 5254 5248 5244 5239 5234 5228 5220 5213 5208 5202 5197 5190 5184 5178 5172 5167
5571 5561 5551 5539 5527 5514 5499 5483 5465 5450 5434 5417 5397 5376 5356 5340 5327 5315 5305 5298 5291 5285 5279 5273 5267 5261 5256 5250 5244 5239 5234 5229 5223 5217 5210 5204 5197 5192 5187 5180 5174 5167 5161